Lapse_Rate
4.1 3.9 4.1 4.0 4.2 4.1 3.3 2.9 3.0 3.1 3.1 3.3 3.4 3.6 3.5 3.5 3.4 3.4 3.6 3.5 3.5 3.5 3.5 3.6 3.8 3.8 3.9 4.2 4.6 5.0 4.4 4.0
0.5 1.2 1.2 3.2 4.0 4.2 4.2 3.5 2.9 2.9 3.3 3.5 3.7 3.8 3.8 3.7 3.7 3.5 3.5 3.4 3.3 3.4 3.4 3.3 3.5 3.7 3.8 4.0 4.5 4.6 3.9 4.2
-0.2 -0.9 -0.2 0.5 3.2 4.4 4.8 4.2 3.6 3.2 3.0 3.2 3.3 3.0 3.3 3.4 3.3 3.4 3.5 3.5 3.3 3.2 3.3 3.3 3.4 3.2 3.6 3.7 3.9 3.7 3.8 3.5
-1.1 -1.3 -1.7 -0.9 1.8 0.9 3.0 4.1 3.9 3.5 3.0 2.6 2.9 2.9 2.5 3.0 3.0 3.4 3.4 3.5 3.4 3.4 3.3 3.3 3.3 2.7 2.9 3.4 3.0 3.3 3.2 3.0
-2.3 -2.2 -2.0 -2.1 -1.1 0.2 1.4 1.4 3.2 4.3 3.8 3.6 3.4 3.5 2.8 2.8 2.9 3.1 3.1 3.3 2.9 3.0 2.8 2.5 2.1 2.2 2.1 2.1 2.6 2.9 3.0 2.9
-3.2 -2.9 -2.8 -2.6 -1.8 -1.5 -0.9 0.3 1.4 2.5 5.1 4.7 4.3 3.2 3.0 3.5 3.4 3.5 3.4 3.2 2.7 2.3 2.0 1.9 2.0 2.2 2.4 2.0 2.3 2.5 3.1 3.1
-3.5 -3.5 -4.0 -3.7 -3.1 -2.6 -2.7 -1.9 -0.1 0.9 2.3 4.5 5.2 4.8 3.9 3.5 3.6 3.3 3.5 3.6 3.3 2.3 1.8 1.7 1.9 1.8 2.3 2.1 2.2 2.6 3.3 3.1
-3.7 -3.5 -3.7 -4.5 -4.3 -4.0 -3.8 -3.3 -1.6 -0.6 1.3 2.2 3.8 5.5 4.9 4.1 3.4 3.2 3.6 4.0 3.7 2.6 1.9 1.8 2.0 1.9 2.2 2.4 2.6 3.2 3.5 2.8
-3.5 -3.5 -3.8 -4.8 -5.1 -4.7 -4.1 -3.3 -2.4 -2.5 -0.3 2.1 2.3 4.0 5.1 5.2 4.5 3.4 3.3 3.9 4.0 3.2 2.1 2.0 2.0 1.9 2.4 2.7 2.8 3.4 3.3 3.0
-2.3 -2.2 -2.6 -3.4 -4.2 -4.4 -3.8 -3.1 -2.8 -2.8 -1.7 -0.8 1.9 3.0 3.1 5.4 5.2 4.9 4.0 4.0 3.8 3.8 3.3 3.1 2.8 2.6 2.8 2.7 3.6 3.3 3.5 3.5
-2.3 -2.5 -2.9 -3.3 -2.5 -2.3 -2.8 -2.5 -2.0 -2.0 -1.5 -1.8 -0.3 2.0 3.2 1.8 4.4 5.1 4.9 4.4 4.1 4.0 4.1 3.7 3.5 3.2 3.2 2.9 3.0 3.3 3.9 4.1
-0.7 -1.2 -1.7 -2.1 -2.0 -1.2 -0.0 -0.1 -0.4 0.2 -0.3 -0.6 -0.5 0.1 1.3 3.0 2.9 4.4 5.2 5.1 4.7 4.2 4.4 4.0 4.2 3.9 4.4 3.9 3.2 3.2 3.9 3.2
-0.4 0.5 0.8 0.6 -0.3 -0.5 0.4 1.9 2.6 1.8 1.5 1.3 0.6 0.3 1.5 3.0 2.5 3.8 5.3 5.0 5.6 4.6 4.3 4.3 3.7 3.7 3.3 3.4 2.8 2.6 2.5 2.4
0.2 1.4 2.2 3.2 3.7 3.5 3.5 4.4 4.3 5.5 4.4 2.3 1.4 1.7 2.7 4.2 3.0 2.8 4.9 5.3 6.1 5.2 4.2 4.9 4.2 3.4 4.8 4.1 5.1 4.7 3.0 2.8
3.0 4.0 4.2 4.6 4.9 4.5 4.4 5.1 6.4 6.5 6.8 5.8 3.9 3.7 3.3 3.5 3.0 2.3 2.7 5.6 5.5 5.6 4.9 4.8 4.8 3.6 4.5 5.1 4.4 5.7 4.8 2.6
3.0 4.1 4.6 5.2 5.3 5.1 5.0 5.9 5.9 6.5 6.8 7.2 6.3 5.4 4.2 3.7 3.2 3.4 1.8 4.4 4.6 5.3 5.6 5.3 4.7 4.3 3.9 5.4 3.6 2.8 4.3 3.4
4.7 4.9 4.9 5.2 6.6 6.1 5.7 5.2 6.2 6.8 7.1 7.1 6.7 4.7 4.5 3.9 3.2 3.0 3.6 4.0 5.4 3.6 5.0 5.9 5.1 4.9 4.6 5.4 3.8 2.7 2.5 2.5
5.5 5.2 4.8 4.8 5.3 5.8 5.3 5.2 6.1 6.2 7.2 6.6 6.1 6.1 6.4 5.2 3.9 3.8 4.2 4.2 2.7 5.8 6.3 6.1 5.5 4.8 4.6 4.9 5.3 6.3 4.2 3.2
5.4 4.7 4.5 5.0 5.5 5.6 5.3 5.4 5.0 5.3 6.7 5.9 5.5 5.1 5.9 4.0 4.6 4.2 3.7 2.9 3.4 3.4 5.4 5.0 5.8 5.4 4.2 3.6 3.6 4.9 5.1 4.6
5.2 5.0 5.3 5.1 5.6 6.0 6.4 5.1 5.0 4.9 5.0 4.7 5.1 3.7 3.7 1.9 2.5 2.7 2.2 2.4 1.6 2.1 5.5 2.7 4.9 4.3 3.7 3.3 2.7 2.3 1.8 2.4
Wind_Speed
16 15 13 11 12 8 10 13 12 12 13 13 12 13 14 14 14 14 13 14 13 13 13 12 11 9 8 7 8 5 6 8
17 23 26 20 12 12 11 11 14 15 14 14 13 13 15 15 14 14 14 14 14 13 13 13 12 10 9 8 7 4 6 7
18 19 24 23 23 16 15 15 11 13 14 15 14 11 13 13 15 16 16 16 15 15 14 14 13 13 12 11 9 7 8 9
16 18 19 22 20 21 22 17 14 10 10 10 11 12 13 14 15 19 19 18 17 16 15 15 14 11 11 11 9 9 7 9
16 14 18 18 16 16 15 15 17 13 12 10 12 12 11 11 10 11 12 16 11 13 12 11 11 9 9 10 10 9 8 10
14 15 13 16 16 11 13 12 14 12 16 14 11 6 7 7 7 12 12 12 10 10 8 9 9 10 11 7 9 9 9 10
14 14 10 15 12 12 11 10 12 14 15 17 14 7 8 7 8 11 11 14 12 8 6 5 6 7 9 8 6 9 10 10
14 13 13 16 10 11 9 11 12 13 15 15 19 16 8 8 9 10 11 15 15 12 9 8 7 6 7 7 7 9 10 11
16 17 17 14 14 13 12 12 13 9 13 16 19 19 13 11 10 11 11 17 17 13 8 5 5 5 7 7 6 9 8 10
15 14 13 14 14 12 11 13 12 12 12 15 18 18 20 13 10 11 11 12 11 10 10 8 8 7 7 6 7 6 7 10
16 17 18 16 13 13 13 14 9 12 13 12 16 17 14 9 11 11 11 10 11 11 11 9 9 7 7 6 6 5 8 8
14 14 16 18 12 10 9 9 9 12 9 11 16 14 15 9 10 14 12 11 12 11 13 10 8 8 8 7 6 6 6 6
16 15 16 14 13 12 12 12 13 12 9 14 17 16 14 10 9 12 15 15 16 14 12 12 8 7 4 2 2 5 5 5
18 18 18 15 12 12 12 11 11 12 13 12 17 15 12 9 9 10 15 9 15 14 15 9 9 9 6 2 4 3 5 6
17 18 19 17 18 13 11 11 10 11 12 12 11 12 9 10 13 11 7 9 15 15 15 17 12 8 10 4 3 7 3 3
18 20 19 16 18 15 16 12 12 11 12 12 12 14 14 12 14 12 10 9 15 13 12 13 11 11 7 10 2 4 4 2
17 19 18 17 17 16 12 13 12 12 11 14 17 15 15 14 14 14 11 8 9 15 18 18 14 13 11 9 3 2 2 2
16 17 17 18 17 17 16 16 16 13 12 11 10 10 11 13 15 13 6 6 2 13 20 21 17 14 11 10 11 10 5 3
15 17 18 19 19 18 18 16 15 16 13 10 11 8 7 7 5 3 3 5 10 7 9 12 15 11 12 11 10 10 7 4
17 18 19 18 18 17 14 15 10 9 11 11 8 8 7 10 6 3 1 1 3 4 10 2 2 3 4 6 6 6 4 4
Wind_Direction
16 6 350 327 306 255 211 193 209 216 212 212 202 195 187 183 177 177 177 175 172 174 172 172 174 178 187 182 178 194 198 188
25 23 18 356 323 303 276 237 212 215 223 224 217 208 202 197 190 189 188 186 180 183 185 183 180 186 194 187 186 176 165 190
19 12 11 5 14 342 310 292 254 249 229 228 219 209 208 204 199 198 196 196 192 189 195 195 192 188 191 193 183 192 213 191
13 7 8 4 5 8 6 336 314 268 249 233 224 216 202 200 202 204 201 202 201 201 202 201 201 194 195 195 197 199 207 188
10 4 6 2 359 360 2 355 348 306 280 246 227 227 217 204 201 206 201 206 203 207 205 208 202 196 199 191 196 210 204 195
3 359 2 359 351 354 350 344 338 349 301 262 235 225 222 214 207 205 201 202 205 200 199 201 214 206 206 197 194 204 209 195
4 353 360 352 347 345 342 335 325 324 329 293 245 234 224 213 213 206 203 203 205 202 199 194 211 208 210 203 204 204 211 206
356 354 356 347 344 338 327 318 308 319 310 306 314 245 232 215 210 208 209 207 209 206 196 199 206 202 212 214 207 204 206 199
353 349 349 348 339 330 323 312 315 306 300 309 303 309 245 221 216 215 207 207 211 214 202 194 197 200 218 214 199 212 199 199
345 344 343 339 331 324 317 313 304 294 298 297 297 297 322 252 224 218 210 207 205 213 208 205 210 206 215 222 218 204 203 201
347 346 342 338 327 321 316 309 302 294 289 289 288 291 297 308 281 223 206 203 207 206 213 206 206 206 211 214 228 210 206 201
348 346 340 335 330 323 314 311 307 295 293 289 283 290 296 281 284 275 210 205 210 204 209 208 206 201 204 217 221 216 206 202
351 343 342 338 331 328 326 319 314 306 295 291 294 285 282 269 261 289 243 203 209 205 200 208 205 192 123 244 258 245 216 209
347 344 338 337 328 320 313 307 300 299 297 286 283 278 274 268 258 280 273 221 229 205 192 198 209 187 190 135 201 257 249 207
340 337 336 336 328 320 313 305 301 300 296 295 285 280 269 272 272 262 302 249 229 218 202 199 201 198 203 170 159 220 211 181
339 337 337 330 327 321 315 306 302 298 294 290 287 278 271 255 258 245 237 257 227 228 216 205 190 202 198 219 148 142 195 252
337 335 335 330 332 327 318 310 301 299 294 294 295 291 273 259 245 248 231 226 269 246 234 216 198 197 196 196 181 165 141 180
336 337 336 338 337 332 324 311 313 305 301 297 296 294 287 255 248 227 188 173 92 271 245 232 206 197 188 195 204 205 187 167
343 344 342 344 344 339 333 330 324 322 323 318 317 315 325 333 292 195 163 197 192 210 217 251 209 201 194 193 206 205 214 156
348 350 346 344 339 341 340 340 334 328 348 341 331 337 343 328 290 130 120 213 59 195 216 93 229 271 190 231 206 198 150 183